TimeMST,TemperatureF,Dew PointF,Humidity,Sea Level PressureIn,VisibilityMPH,Wind Direction,Wind SpeedMPH,Gust SpeedMPH,PrecipitationIn,Events,Conditions,WindDirDegrees,DateUTC
12:54 AM,45.0,19.0,36,29.93,10.0,SSE,8.1,-,N/A,,Clear,150,2012-11-08 07:54:00
1:54 AM,44.1,19.0,37,29.92,10.0,South,3.5,-,N/A,,Clear,170,2012-11-08 08:54:00
2:54 AM,37.0,19.0,48,29.92,10.0,Calm,Calm,-,N/A,,Clear,0,2012-11-08 09:54:00
3:54 AM,37.0,18.0,46,29.91,10.0,West,4.6,-,N/A,,Clear,270,2012-11-08 10:54:00
4:54 AM,41.0,17.6,39,30.09,10.0,Calm,Calm,-,N/A,,Partly Cloudy,0,2012-11-08 11:54:00
5:54 AM,37.0,18.0,46,29.96,10.0,WSW,5.8,-,N/A,,Clear,240,2012-11-08 12:54:00
6:54 AM,37.9,19.0,47,29.95,10.0,West,4.6,-,N/A,,Clear,270,2012-11-08 13:54:00
7:54 AM,39.0,17.1,41,29.98,10.0,East,4.6,-,N/A,,Scattered Clouds,80,2012-11-08 14:54:00
8:54 AM,42.1,18.0,38,29.99,10.0,Calm,Calm,-,N/A,,Clear,0,2012-11-08 15:54:00
9:54 AM,46.0,17.1,31,29.98,10.0,Calm,Calm,-,N/A,,Clear,0,2012-11-08 16:54:00
10:54 AM,53.1,21.0,29,29.95,10.0,South,4.6,-,N/A,,Clear,180,2012-11-08 17:54:00
11:54 AM,62.1,23.0,22,29.90,10.0,East,3.5,-,N/A,,Clear,80,2012-11-08 18:54:00
12:54 PM,69.1,16.0,13,29.84,10.0,SW,17.3,26.5,N/A,,Clear,220,2012-11-08 19:54:00
1:54 PM,70.0,18.0,14,29.82,10.0,SW,12.7,24.2,N/A,,Clear,220,2012-11-08 20:54:00
2:54 PM,70.0,18.0,14,29.83,10.0,WSW,16.1,27.6,N/A,,Clear,240,2012-11-08 21:54:00
3:54 PM,69.1,17.1,14,29.83,10.0,WSW,13.8,20.7,N/A,,Clear,250,2012-11-08 22:54:00
4:54 PM,64.9,18.0,16,29.83,10.0,SSW,13.8,-,N/A,,Clear,210,2012-11-08 23:54:00
5:54 PM,61.0,19.0,20,29.88,10.0,SW,10.4,-,N/A,,Clear,220,2012-11-09 00:54:00
6:54 PM,57.9,19.0,22,29.91,10.0,SW,11.5,-,N/A,,Clear,230,2012-11-09 01:54:00
7:54 PM,57.0,21.0,25,29.90,10.0,SSW,5.8,-,N/A,,Mostly Cloudy,200,2012-11-09 02:54:00
8:54 PM,55.9,21.9,27,29.89,10.0,South,5.8,-,N/A,,Mostly Cloudy,180,2012-11-09 03:54:00
9:54 PM,57.0,34.0,42,29.89,10.0,SSW,13.8,24.2,N/A,,Overcast,210,2012-11-09 04:54:00
10:54 PM,54.0,35.1,49,29.88,10.0,SW,11.5,-,N/A,,Mostly Cloudy,220,2012-11-09 05:54:00
11:54 PM,52.0,35.1,53,29.84,10.0,South,5.8,-,N/A,,Overcast,190,2012-11-09 06:54:00